Weather History for Worland, WY

Change the Weather History Date:

Wednesday, September 11, 2013

  Actual Average Record
Temperature  
Mean Temperature 68 °F 61 °F  
Max Temperature 83 °F 77 °F 98 °F (1971)
Min Temperature 52 °F 45 °F 32 °F (2014)
Degree Days  
Heating Degree Days 0 5  
Month to date heating degree days 0 41  
Since 1 July heating degree days 0 77  
Cooling Degree Days 3 1  
Month to date cooling degree days 79 21  
Year to date cooling degree days 840 527  
Growing Degree Days 17 (Base 50)    
Moisture  
Dew Point 45 °F    
Average Humidity 49    
Maximum Humidity 71    
Minimum Humidity 26    
Precipitation  
Precipitation 0.00 in 0.02 in 0.44 in (2014)
Month to date precipitation 0.20 0.25  
Year to date precipitation 3.41 5.70  
Sea Level Pressure  
Sea Level Pressure 30.12 in    
Wind  
Wind Speed 4 mph (SE)    
Max Wind Speed 13 mph    
Max Gust Speed 16 mph    
Visibility 10 miles    
Events      
T = Trace of Precipitation, MM = Missing Value Source: NWS Daily Summary

Daily Weather History Graph

Daily Weather History Graph

Search for Another Location

Airport:

Trip Planner

Search our weather history database for the weather conditions in past years. The results will help you decide how hot, cold, wet, or windy it might be!

Date:

Astronomy

Sep. 11, 2013 Rise Set
Actual Time 6:46 AM MDT 7:28 PM MDT
Civil Twilight 6:17 AM MDT 7:58 PM MDT
Nautical Twilight 5:43 AM MDT 8:32 PM MDT
Astronomical Twilight 5:07 AM MDT 9:08 PM MDT
Moon 1:31 PM MDT (9/11) 11:14 PM MDT (9/11)
Length of Visible Light 13h 40m
Length of Day
12h 42m
Waxing Crescent, 39% of the Moon is Illuminated
Sep 11
Waxing Crescent
Sep 12
First Quarter
Sep 19
Full
Sep 26
Last Quarter
Oct 4
New

Hourly Weather History & Observations

Time (MDT) Temp. Dew Point Humidity Pressure Visibility Wind Dir Wind Speed Gust Speed Precip Events Conditions
12:53 AM 64.9 °F 44.1 °F 47% 30.06 in 10.0 mi SE 8.1 mph - N/A   Clear
1:53 AM 61.0 °F 45.0 °F 56% 30.07 in 10.0 mi Calm Calm - N/A   Clear
2:53 AM 57.0 °F 43.0 °F 59% 30.08 in 10.0 mi SSE 3.5 mph - N/A   Clear
3:53 AM 62.1 °F 44.1 °F 52% 30.07 in 10.0 mi SE 8.1 mph - N/A   Clear
4:53 AM 53.1 °F 44.1 °F 71% 30.09 in 10.0 mi Calm Calm - N/A   Clear
5:53 AM 54.0 °F 43.0 °F 66% 30.11 in 10.0 mi Calm Calm - N/A   Clear
6:53 AM 54.0 °F 43.0 °F 66% 30.12 in 10.0 mi Calm Calm - N/A   Clear
7:53 AM 57.0 °F 43.0 °F 59% 30.15 in 10.0 mi Calm Calm - N/A   Clear
8:53 AM 60.1 °F 45.0 °F 57% 30.16 in 10.0 mi Calm Calm - N/A   Clear
9:53 AM 64.0 °F 44.1 °F 48% 30.17 in 10.0 mi Calm Calm - N/A   Clear
10:53 AM 66.9 °F 46.9 °F 49% 30.16 in 10.0 mi NNE 3.5 mph - N/A   Clear
11:53 AM 73.0 °F 46.9 °F 39% 30.14 in 10.0 mi North 4.6 mph - N/A   Clear
12:53 PM 78.1 °F 45.0 °F 31% 30.12 in 10.0 mi Calm Calm - N/A   Clear
1:53 PM 81.0 °F 45.0 °F 28% 30.11 in 10.0 mi NNE 6.9 mph - N/A   Partly Cloudy
2:53 PM 80.1 °F 43.0 °F 27% 30.11 in 10.0 mi Calm Calm - N/A   Clear
3:53 PM 80.1 °F 43.0 °F 27% 30.09 in 10.0 mi Calm Calm - N/A   Clear
4:53 PM 81.0 °F 43.0 °F 26% 30.10 in 10.0 mi North 3.5 mph - N/A   Clear
5:53 PM 79.0 °F 44.1 °F 29% 30.10 in 10.0 mi North 4.6 mph - N/A   Clear
6:53 PM 75.0 °F 45.0 °F 34% 30.11 in 10.0 mi Calm Calm - N/A   Clear
7:53 PM 70.0 °F 48.9 °F 47% 30.14 in 10.0 mi South 9.2 mph - N/A   Clear
8:53 PM 66.0 °F 52.0 °F 60% 30.16 in 10.0 mi West 8.1 mph - N/A   Mostly Cloudy
9:53 PM 66.9 °F 51.1 °F 57% 30.16 in 10.0 mi SSW 8.1 mph - N/A   Scattered Clouds
10:53 PM 64.0 °F 48.9 °F 58% 30.16 in 10.0 mi South 9.2 mph - N/A   Clear
11:53 PM 64.0 °F 48.9 °F 58% 30.15 in 10.0 mi South 9.2 mph - N/A   Clear